Chicopee, MA

4:34 AM EST on February 06, 2016 (GMT -0500)
Westover Air Reserve Base / Metropolitan Airport

Weather History for KCEF - September, 2012

Change the Weather History Date:

Sunday, September 30, 2012

  Actual Average Record
Temperature  
Mean Temperature 56 °F -  
Max Temperature 66 °F 64 °F 78 °F (2014)
Min Temperature 48 °F 42 °F 28 °F (2000)
Degree Days  
Heating Degree Days 8    
Growing Degree Days 6 (Base 50)    
Moisture  
Dew Point 53 °F    
Average Humidity 87    
Maximum Humidity 100    
Minimum Humidity 62    
Precipitation  
Precipitation 0.04 in - - ()
Sea Level Pressure  
Sea Level Pressure 29.82 in    
Wind  
Wind Speed 2 mph (NNW)    
Max Wind Speed 9 mph    
Max Gust Speed -    
Visibility 10 miles    
Events Rain , Thunderstorm    
Averages and records for this station are not official NWS values.
T = Trace of Precipitation, MM = Missing Value Source: NWS Daily Summary

Daily Weather History Graph

Daily Weather History Graph

Search for Another Location

Airport or City:

Trip Planner

Search our weather history database for the weather conditions in past years. The results will help you decide how hot, cold, wet, or windy it might be!

Date:

Astronomy

Sep. 30, 2012 Rise Set
Actual Time 6:46 AM EDT 6:32 PM EDT
Civil Twilight 6:18 AM EDT 7:00 PM EDT
Nautical Twilight 5:46 AM EDT 7:32 PM EDT
Astronomical Twilight 5:13 AM EDT 8:05 PM EDT
Moon 6:32 PM EDT (9/30) 7:15 AM EDT (9/30)
Length of Visible Light 12h 41m
Length of Day
11h 46m
Full, 100% of the Moon is Illuminated
Sep 30
Full
Oct 8
Last Quarter
Oct 15
New
Oct 21
First Quarter
Oct 29
Full

Hourly Weather History & Observations

Time (EDT) Temp. Dew Point Humidity Pressure Visibility Wind Dir Wind Speed Gust Speed Precip Events Conditions
12:25 AM 55.4 °F 55.4 °F 100% 29.90 in 8.0 mi Calm Calm - N/A   Overcast
12:31 AM 55.4 °F 55.4 °F 100% 29.90 in 8.0 mi Calm Calm - N/A   Overcast
12:55 AM 55.2 °F 54.7 °F 98% 29.88 in 10.0 mi NE 3.5 mph - N/A   Overcast
1:01 AM 55.4 °F 53.6 °F 94% 29.88 in 10.0 mi NE 4.6 mph - N/A   Overcast
1:20 AM 55.4 °F 55.4 °F 100% 29.90 in 10.0 mi Calm Calm - N/A   Overcast
1:26 AM 55.4 °F 55.4 °F 100% 29.90 in 10.0 mi Calm Calm - N/A   Overcast
1:40 AM 55.4 °F 55.4 °F 100% 29.90 in 10.0 mi Calm Calm - N/A   Overcast
1:52 AM 55.4 °F 55.4 °F 100% 29.90 in 10.0 mi Calm Calm - N/A   Overcast
1:53 AM 55.4 °F 55.4 °F 100% 29.90 in 10.0 mi Calm Calm - N/A   Overcast
1:55 AM 55.4 °F 54.9 °F 98% 29.90 in 10.0 mi Calm Calm - N/A   Overcast
2:06 AM 55.4 °F 55.4 °F 100% 29.91 in 10.0 mi SSE 3.5 mph - N/A   Overcast
2:15 AM 55.4 °F 55.4 °F 100% 29.90 in 10.0 mi Calm Calm - N/A   Overcast
2:55 AM 54.9 °F 54.3 °F 98% 29.87 in 10.0 mi Calm Calm - N/A   Overcast
3:33 AM 55.4 °F 53.6 °F 94% 29.87 in 10.0 mi Calm Calm - N/A   Overcast
3:48 AM 55.4 °F 53.6 °F 94% 29.87 in 10.0 mi Calm Calm - N/A   Overcast
3:55 AM 54.7 °F 54.1 °F 98% 29.87 in 10.0 mi Calm Calm - N/A   Overcast
4:55 AM 54.7 °F 54.1 °F 98% 29.86 in 10.0 mi NE 4.6 mph - N/A   Overcast
5:55 AM 54.5 °F 54.0 °F 98% 29.86 in 10.0 mi Calm Calm - N/A   Overcast
6:03 AM 55.4 °F 53.6 °F 94% 29.86 in 10.0 mi Calm Calm - N/A   Overcast
6:15 AM 55.4 °F 53.6 °F 94% 29.86 in 10.0 mi Calm Calm - N/A   Overcast
6:45 AM 55.4 °F 53.6 °F 94% 29.86 in 10.0 mi ENE 3.5 mph - N/A   Overcast
6:52 AM 53.6 °F 53.6 °F 100% 29.87 in 10.0 mi Calm Calm - N/A   Overcast
6:55 AM 54.5 °F 54.0 °F 98% 29.87 in 10.0 mi Calm Calm - N/A   Overcast
7:11 AM 53.6 °F 53.6 °F 100% 29.86 in 10.0 mi NE 3.5 mph - N/A   Overcast
7:17 AM 53.6 °F 53.6 °F 100% 29.86 in 10.0 mi North 4.6 mph - N/A   Overcast
7:20 AM 53.6 °F 53.6 °F 100% 29.85 in 10.0 mi North 5.8 mph - N/A   Overcast
7:24 AM 53.6 °F 53.6 °F 100% 29.85 in 10.0 mi North 5.8 mph - N/A   Mostly Cloudy
7:55 AM 54.1 °F 53.6 °F 98% 29.86 in 10.0 mi Calm Calm - N/A   Mostly Cloudy
8:04 AM 53.6 °F 53.6 °F 100% 29.86 in 10.0 mi Calm Calm - N/A   Overcast
8:18 AM 55.4 °F 53.6 °F 94% 29.85 in 10.0 mi Calm Calm - N/A   Overcast
8:55 AM 55.0 °F 54.5 °F 98% 29.85 in 10.0 mi Calm Calm - N/A   Overcast
9:02 AM 55.4 °F 55.4 °F 100% 29.85 in 10.0 mi Calm Calm - N/A   Overcast
9:36 AM 57.2 °F 53.6 °F 88% 29.85 in 10.0 mi North 4.6 mph - N/A   Overcast
9:38 AM 57.2 °F 53.6 °F 88% 29.85 in 10.0 mi North 4.6 mph - N/A   Overcast
9:45 AM 57.2 °F 53.6 °F 88% 29.84 in 10.0 mi NNE 5.8 mph - N/A   Overcast
9:55 AM 56.7 °F 54.1 °F 91% 29.84 in 10.0 mi North 4.6 mph - N/A   Overcast
10:21 AM 57.2 °F 53.6 °F 88% 29.83 in 10.0 mi NNE 3.5 mph - N/A   Overcast
10:25 AM 57.2 °F 53.6 °F 88% 29.83 in 10.0 mi Calm Calm - N/A   Overcast
10:27 AM 57.2 °F 53.6 °F 88% 29.83 in 10.0 mi NNE 4.6 mph - N/A   Overcast
10:37 AM 57.2 °F 53.6 °F 88% 29.83 in 10.0 mi North 3.5 mph - N/A   Overcast
10:55 AM 58.5 °F 53.2 °F 83% 29.83 in 10.0 mi NNW 4.6 mph - N/A   Overcast
11:50 AM 60.8 °F 51.8 °F 72% 29.81 in 10.0 mi WNW 6.9 mph - N/A   Overcast
11:52 AM 60.8 °F 51.8 °F 72% 29.81 in 10.0 mi WNW 6.9 mph - N/A   Overcast
11:55 AM 60.4 °F 52.7 °F 76% 29.81 in 10.0 mi WNW 5.8 mph - N/A   Overcast
11:56 AM 60.8 °F 53.6 °F 77% 29.81 in 10.0 mi NNW 5.8 mph - N/A   Overcast
11:59 AM 60.8 °F 51.8 °F 72% 29.81 in 10.0 mi Variable 4.6 mph - N/A   Overcast
12:03 PM 60.8 °F 51.8 °F 72% 29.81 in 10.0 mi NW 6.9 mph - N/A   Overcast
12:12 PM 60.8 °F 51.8 °F 72% 29.80 in 10.0 mi NNW 3.5 mph - N/A   Overcast
12:34 PM 60.8 °F 53.6 °F 77% 29.79 in 10.0 mi Variable 6.9 mph - N/A   Overcast
12:41 PM 60.8 °F 51.8 °F 72% 29.79 in 10.0 mi NNE 5.8 mph - N/A   Mostly Cloudy
12:55 PM 60.6 °F 52.7 °F 75% 29.79 in 10.0 mi WNW 4.6 mph - N/A   Overcast
12:58 PM 60.8 °F 53.6 °F 77% 29.78 in 10.0 mi NNW 6.9 mph - N/A   Overcast
1:04 PM 60.8 °F 51.8 °F 72% 29.78 in 10.0 mi NW 4.6 mph - N/A   Overcast
1:31 PM 60.8 °F 51.8 °F 72% 29.78 in 10.0 mi NW 4.6 mph - N/A   Overcast
1:55 PM 62.2 °F 51.8 °F 69% 29.77 in 10.0 mi NNE 3.5 mph - N/A   Mostly Cloudy
2:08 PM 62.6 °F 51.8 °F 68% 29.76 in 10.0 mi Calm Calm - N/A   Light Drizzle
2:18 PM 64.4 °F 51.8 °F 64% 29.76 in 10.0 mi NW 3.5 mph - N/A   Partly Cloudy
2:55 PM 63.0 °F 51.1 °F 65% 29.74 in 10.0 mi Calm Calm - 0.00 in   Mostly Cloudy
2:57 PM 64.4 °F 51.8 °F 64% 29.74 in 10.0 mi Calm Calm - N/A   Light Drizzle
2:59 PM 64.4 °F 51.8 °F 64% 29.74 in 10.0 mi East 3.5 mph - N/A   Light Drizzle
3:10 PM 64.4 °F 51.8 °F 64% 29.74 in 10.0 mi Calm Calm - N/A   Overcast
3:31 PM 64.4 °F 51.8 °F 64% 29.73 in 10.0 mi South 3.5 mph - N/A   Overcast
3:55 PM 65.7 °F 52.2 °F 62% 29.73 in 10.0 mi SSW 9.2 mph - 0.00 in   Scattered Clouds
4:22 PM 62.6 °F 51.8 °F 68% 29.73 in 10.0 mi South 9.2 mph - N/A Rain Light Rain
4:55 PM 61.9 °F 55.2 °F 79% 29.73 in 10.0 mi SSW 6.9 mph - 0.01 in Rain Light Rain
5:02 PM 62.6 °F 55.4 °F 77% 29.73 in 10.0 mi SSW 6.9 mph - N/A   Scattered Clouds
5:55 PM 59.7 °F 54.3 °F 82% 29.73 in 10.0 mi SSW 4.6 mph - 0.00 in   Mostly Cloudy
6:20 PM 59.0 °F 53.6 °F 82% 29.73 in 9.0 mi SSW 5.8 mph - N/A Rain Light Rain
6:26 PM 59.0 °F 55.4 °F 88% 29.73 in 6.0 mi West 8.1 mph - N/A Rain , Thunderstorm Light Thunderstorms and Rain
6:43 PM 57.2 °F 51.8 °F 82% 29.73 in 10.0 mi Variable 6.9 mph - N/A Rain Light Rain
6:44 PM 57.2 °F 51.8 °F 82% 29.72 in 10.0 mi West 6.9 mph - N/A Rain , Thunderstorm Light Thunderstorms and Rain
6:55 PM 57.0 °F 50.7 °F 79% 29.74 in 10.0 mi West 9.2 mph - 0.03 in Thunderstorm Thunderstorm
7:07 PM 55.4 °F 50.0 °F 82% 29.74 in 10.0 mi West 6.9 mph - N/A   Partly Cloudy
7:55 PM 52.3 °F 51.4 °F 97% 29.74 in 10.0 mi Calm Calm - N/A   Partly Cloudy
8:55 PM 50.5 °F 50.0 °F 98% 29.74 in 10.0 mi South 4.6 mph - N/A   Partly Cloudy
9:55 PM 48.6 °F 48.0 °F 98% 29.75 in 10.0 mi Calm Calm - N/A   Partly Cloudy
10:55 PM 48.4 °F 47.8 °F 98% 29.75 in 10.0 mi SSE 5.8 mph - N/A   Clear
11:55 PM 48.0 °F 47.5 °F 98% 29.75 in 10.0 mi SSE 3.5 mph - N/A   Clear